N1EDU Weather Reports


Display with metric or nautical units.
time (UTC)temp
F
wind
direction
speed
MPH
gust
MPH
rain 1hr
in
rain 24hr
in
rain mn
in
humidity
%
barometer
mb
20260507210608 64 308 6.0 15.0 0.00 0.00 0.00 35 1004.7
20260507210107 64 290 5.0 13.0 0.00 0.00 0.00 36 1004.7
20260507205535 64 305 8.0 13.0 0.00 0.00 0.00 37 1004.7
20260507205034 64 276 7.0 13.0 0.00 0.00 0.00 35 1004.7
20260507204533 65 346 5.0 10.0 0.00 0.00 0.00 33 1004.7
20260507204001 64 344 5.0 11.0 0.00 0.00 0.00 35 1004.7
20260507203500 64 309 3.0 12.0 0.00 0.00 0.00 38 1004.7
20260507202959 64 294 6.0 13.0 0.00 0.00 0.00 37 1004.7
20260507202458 64 301 6.0 13.0 0.00 0.00 0.00 35 1004.7
20260507201957 64 286 5.0 17.0 0.00 0.00 0.00 34 1004.7
20260507201456 64 295 8.0 17.0 0.00 0.00 0.00 33 1004.7
20260507200956 64 266 6.0 13.0 0.00 0.00 0.00 35 1004.7
20260507200455 63 338 6.0 13.0 0.00 0.00 0.00 38 1004.7
20260507195954 63 257 7.0 17.0 0.00 0.00 0.00 36 1004.7
20260507195453 61 297 9.0 17.0 0.00 0.00 0.00 39 1004.7
20260507194952 60 311 3.0 13.0 0.00 0.00 0.00 41 1004.7
20260507194451 61 297 6.0 14.0 0.00 0.00 0.00 41 1004.7
20260507193950 62 310 8.0 18.0 0.00 0.00 0.00 39 1004.7
20260507193418 63 294 8.0 19.0 0.00 0.00 0.00 39 1004.7
20260507192917 65 288 9.0 19.0 0.00 0.00 0.00 35 1004.7
20260507192416 65 298 6.0 10.0 0.00 0.00 0.00 37 1004.7
20260507191844 65 345 6.0 11.0 0.00 0.00 0.00 38 1004.7
20260507191312 65 352 6.0 12.0 0.00 0.00 0.00 39 1005.1
20260507190811 65 334 4.0 14.0 0.00 0.00 0.00 38 1005.1
20260507190310 64 325 7.0 20.0 0.00 0.00 0.00 37 1005.1
20260507185810 64 303 10.0 20.0 0.00 0.00 0.00 34 1005.1
20260507185309 64 299 8.0 18.0 0.00 0.00 0.00 38 1005.1
20260507184808 63 304 10.0 18.0 0.00 0.00 0.00 42 1005.1
20260507184307 62 336 6.0 16.0 0.00 0.00 0.00 40 1005.1
20260507183804 63 318 5.0 16.0 0.00 0.00 0.00 43 1005.1
20260507183303 63 324 7.0 13.0 0.00 0.00 0.00 41 1005.1
20260507182803 62 296 5.0 14.0 0.00 0.00 0.00 43 1005.4
20260507182302 63 345 6.0 15.0 0.00 0.00 0.00 40 1005.4
20260507181801 63 309 8.0 15.0 0.00 0.00 0.00 39 1005.4
20260507181300 63 312 9.0 19.0 0.00 0.00 0.00 40 1005.4
20260507180759 63 346 6.0 19.0 0.00 0.00 0.00 42 1005.4
20260507180258 63 338 7.0 16.0 0.00 0.00 0.00 40 1005.4
20260507175757 63 296 10.0 20.0 0.00 0.00 0.00 42 1005.4
20260507175257 63 331 7.0 20.0 0.00 0.00 0.00 41 1005.4
20260507174725 64 327 6.0 16.0 0.00 0.00 0.00 39 1005.1
20260507174223 64 332 5.0 17.0 0.00 0.00 0.00 43 1005.4
20260507173722 64 311 7.0 18.0 0.00 0.00 0.00 41 1005.1
20260507173221 63 349 6.0 18.0 0.00 0.00 0.00 44 1005.1
20260507172721 62 340 6.0 12.0 0.00 0.00 0.00 45 1005.4
20260507172220 63 316 6.0 17.0 0.00 0.00 0.00 43 1005.4
20260507171719 63 325 9.0 18.0 0.00 0.00 0.00 42 1005.4
20260507171218 63 312 9.0 18.0 0.00 0.00 0.00 47 1005.4
20260507170718 63 292 4.0 17.0 0.00 0.00 0.00 47 1005.4
20260507170217 62 320 3.0 17.0 0.00 0.00 0.00 48 1005.8
20260507165716 61 305 8.0 15.0 0.00 0.00 0.00 47 1005.8
20260507165215 60 347 7.0 15.0 0.00 0.00 0.00 47 1005.7
20260507164714 60 331 6.0 17.0 0.00 0.00 0.00 52 1005.7
20260507164142 61 332 8.0 17.0 0.00 0.00 0.00 46 1005.8
20260507163641 62 317 6.0 15.0 0.00 0.00 0.00 47 1005.8
20260507163110 62 293 7.0 15.0 0.00 0.00 0.00 44 1005.8
20260507162609 61 350 1.0 14.0 0.00 0.00 0.00 50 1005.8
20260507162108 59 268 5.0 11.0 0.00 0.00 0.00 54 1005.7
20260507161536 58 293 5.0 11.0 0.00 0.00 0.00 58 1006.1
20260507161036 59 302 6.0 14.0 0.00 0.00 0.00 59 1006.1
20260507160534 60 315 5.0 14.0 0.00 0.00 0.00 56 1006.1
20260507160034 60 289 4.0 18.0 0.00 0.00 0.00 55 1006.1
20260507155533 59 274 11.0 18.0 0.00 0.00 0.00 54 1006.1
20260507155001 57 309 7.0 11.0 0.00 0.00 0.00 63 1006.4
20260507154429 56 299 7.0 13.0 0.00 0.00 0.00 62 1006.4
20260507153928 57 248 7.0 13.0 0.00 0.00 0.00 60 1006.4
20260507153427 58 279 5.0 10.0 0.00 0.00 0.00 59 1006.4
20260507152927 58 335 3.0 9.0 0.00 0.00 0.00 61 1006.8
20260507152426 57 311 5.0 12.0 0.00 0.00 0.00 62 1006.8
20260507151925 58 266 5.0 12.0 0.00 0.00 0.00 58 1006.8
20260507151424 59 337 5.0 11.0 0.00 0.00 0.00 57 1006.8
20260507150923 59 293 5.0 11.0 0.00 0.00 0.00 59 1006.8
20260507150423 58 321 6.0 10.0 0.00 0.00 0.00 63 1006.8
20260507145922 58 295 6.0 14.0 0.00 0.00 0.00 63 1006.8
20260507145421 59 284 4.0 14.0 0.00 0.00 0.00 62 1006.8
20260507144818 59 332 5.0 11.0 0.00 0.00 0.00 55 1006.8
20260507144317 58 305 4.0 11.0 0.00 0.00 0.00 59 1006.8
20260507143816 58 324 5.0 14.0 0.00 0.00 0.00 62 1006.8
20260507143315 57 295 6.0 14.0 0.00 0.00 0.00 62 1006.8
20260507142814 57 310 7.0 11.0 0.00 0.00 0.00 62 1006.5
20260507142314 57 304 5.0 14.0 0.00 0.00 0.00 63 1006.8
20260507141813 56 286 5.0 14.0 0.00 0.00 0.00 65 1006.5
20260507141312 56 320 5.0 14.0 0.00 0.00 0.00 65 1006.5
20260507140740 55 339 5.0 14.0 0.00 0.00 0.00 63 1006.8
20260507140137 55 323 7.0 14.0 0.00 0.00 0.00 70 1006.5
20260507135637 55 299 7.0 17.0 0.00 0.00 0.00 69 1006.8
20260507135136 55 303 9.0 17.0 0.00 0.00 0.00 68 1006.8
20260507134635 55 293 7.0 13.0 0.00 0.00 0.00 66 1006.5
20260507134134 56 300 7.0 11.0 0.00 0.00 0.00 64 1006.5
20260507133633 56 322 5.0 9.0 0.00 0.00 0.00 66 1006.8
20260507133132 55 359 3.0 9.0 0.00 0.00 0.00 68 1006.8
20260507132632 55 348 5.0 14.0 0.00 0.00 0.00 68 1006.8
20260507132059 55 315 5.0 14.0 0.00 0.00 0.00 64 1006.8
20260507131558 56 317 8.0 12.0 0.00 0.00 0.00 63 1006.8
20260507131058 56 339 4.0 10.0 0.00 0.00 0.00 63 1006.8
20260507130455 56 323 4.0 10.0 0.00 0.00 0.00 63 1006.8
20260507125923 56 303 5.0 10.0 0.00 0.00 0.00 64 1006.8
20260507125422 56 329 6.0 10.0 0.00 0.00 0.00 65 1006.8
20260507124921 55 339 3.0 11.0 0.00 0.00 0.00 67 1006.8
20260507124420 55 329 6.0 11.0 0.00 0.00 0.00 63 1006.8
20260507123919 55 344 5.0 11.0 0.00 0.00 0.00 65 1006.8
20260507123419 54 314 4.0 11.0 0.00 0.00 0.00 66 1006.8
20260507122918 54 323 5.0 13.0 0.00 0.00 0.00 69 1006.8
20260507122417 54 306 8.0 13.0 0.00 0.00 0.00 70 1007.1
20260507121916 54 311 4.0 13.0 0.00 0.00 0.00 68 1007.1
20260507121416 54 312 7.0 11.0 0.00 0.00 0.00 70 1007.1
20260507120915 53 336 2.0 11.0 0.00 0.00 0.00 72 1006.8
20260507120412 53 310 5.0 11.0 0.00 0.00 0.00 71 1007.1
20260507115911 53 318 4.0 11.0 0.00 0.00 0.00 72 1007.1
20260507115410 53 316 4.0 11.0 0.00 0.00 0.00 74 1006.8
20260507114910 52 342 6.0 11.0 0.00 0.00 0.00 73 1006.8
20260507114338 52 342 4.0 9.0 0.00 0.00 0.00 76 1006.8
20260507113838 51 358 4.0 9.0 0.00 0.00 0.00 77 1006.8
20260507113336 50 334 3.0 6.0 0.00 0.00 0.00 86 1006.8
20260507112835 49 7 3.0 3.0 0.00 0.00 0.00 87 1006.8
20260507112335 48 331 0.0 0.0 0.00 0.00 0.00 90 1006.7
20260507111835 47 331 0.0 0.0 0.00 0.00 0.00 95 1006.7
20260507111334 45 331 0.0 0.0 0.00 0.00 0.00 96 1006.7
20260507110833 45 331 0.0 6.0 0.00 0.00 0.00 96 1006.7
20260507110332 45 337 2.0 7.0 0.00 0.00 0.00 96 1006.4
20260507105831 45 1 5.0 7.0 0.00 0.00 0.00 95 1006.4
20260507105330 46 321 5.0 7.0 0.00 0.00 0.00 96 1006.7
20260507104830 45 359 4.0 7.0 0.00 0.00 0.00 96 1006.7
20260507104329 45 332 4.0 7.0 0.00 0.00 0.00 96 1006.7
20260507103828 45 306 0.0 5.0 0.00 0.00 0.00 97 1006.7
20260507103327 45 322 4.0 9.0 0.00 0.00 0.00 96 1006.7
20260507102826 45 314 5.0 9.0 0.00 0.00 0.00 96 1006.7
20260507102326 45 348 4.0 10.0 0.00 0.00 0.00 96 1006.4
20260507101825 45 337 5.0 10.0 0.00 0.00 0.00 96 1006.4
20260507101324 45 337 4.0 8.0 0.00 0.00 0.00 97 1006.7
20260507100752 45 330 5.0 8.0 0.00 0.00 0.00 97 1006.7
20260507100251 45 319 5.0 9.0 0.00 0.00 0.00 97 1006.4
20260507095750 45 305 3.0 11.0 0.00 0.00 0.00 97 1006.7
20260507095249 45 299 5.0 11.0 0.00 0.00 0.00 97 1006.7
20260507094717 46 291 5.0 13.0 0.00 0.00 0.00 97 1006.4
20260507094217 46 323 4.0 13.0 0.00 0.00 0.00 97 1006.7
20260507093716 46 293 2.0 8.0 0.00 0.00 0.00 97 1006.7
20260507093215 46 282 4.0 9.0 0.00 0.00 0.00 97 1006.7
20260507092643 46 290 3.0 8.0 0.00 0.00 0.00 97 1006.7
20260507092009 46 288 4.0 8.0 0.00 0.00 0.00 97 1006.7
20260507091508 46 324 4.0 7.0 0.00 0.00 0.00 98 1006.7
20260507091008 46 256 2.0 7.0 0.00 0.00 0.00 98 1006.7
20260507090507 46 265 5.0 7.0 0.00 0.00 0.00 98 1006.4
20260507090006 46 298 4.0 6.0 0.00 0.00 0.00 98 1006.1
20260507085505 46 328 3.0 6.0 0.00 0.00 0.00 97 1006.1
20260507085004 46 339 4.0 11.0 0.00 0.00 0.00 97 1006.1
20260507084432 46 302 7.0 11.0 0.00 0.00 0.00 97 1005.7
20260507083932 46 309 7.0 10.0 0.00 0.00 0.00 97 1006.1
20260507083431 46 324 2.0 10.0 0.00 0.00 0.00 97 1005.7
20260507082859 46 321 6.0 13.0 0.00 0.00 0.00 97 1005.7
20260507082358 46 313 6.0 13.0 0.00 0.00 0.00 97 1005.7
20260507081857 46 303 6.0 13.0 0.00 0.00 0.00 97 1005.7
20260507081357 47 343 7.0 13.0 0.00 0.00 0.00 97 1005.7
20260507080856 47 331 7.0 12.0 0.00 0.00 0.00 97 1006.4
20260507080355 47 278 1.0 6.0 0.00 0.00 0.00 97 1006.1
20260507075854 47 295 4.0 9.0 0.00 0.00 0.00 98 1006.1
20260507075353 47 303 5.0 9.0 0.00 0.00 0.00 98 1006.1
20260507074852 47 321 5.0 10.0 0.00 0.00 0.00 98 1005.7
20260507074320 47 309 5.0 10.0 0.00 0.00 0.00 98 1005.7
20260507073820 47 288 6.0 10.0 0.00 0.00 0.00 98 1005.4
20260507073319 47 328 6.0 10.0 0.00 0.00 0.00 98 1005.7
20260507072746 47 299 5.0 13.0 0.00 0.00 0.00 98 1006.1
20260507072245 47 311 5.0 13.0 0.00 0.00 0.00 98 1005.7
20260507071744 47 299 6.0 10.0 0.00 0.00 0.00 98 1005.4
20260507071243 47 311 6.0 11.0 0.00 0.00 0.00 99 1005.7
20260507070742 47 312 7.0 11.0 0.00 0.00 0.00 99 1005.7
20260507070242 47 291 4.0 10.0 0.00 0.00 0.00 99 1005.7
20260507065710 48 304 7.0 10.0 0.00 0.00 0.00 99 1005.7
20260507065209 48 337 0.0 8.0 0.00 0.00 0.00 99 1005.7
20260507064708 48 337 4.0 8.0 0.00 0.00 0.00 99 1005.7
20260507064207 48 311 3.0 9.0 0.00 0.00 0.00 99 1005.7
20260507063706 48 315 4.0 9.0 0.00 0.00 0.00 99 1005.7
20260507063205 48 284 2.0 8.0 0.00 0.00 0.00 99 1005.7
20260507062705 48 278 4.0 8.0 0.00 0.00 0.00 99 1005.7
20260507062204 48 288 4.0 8.0 0.00 0.00 0.00 99 1005.8
20260507061632 48 317 3.0 8.0 0.00 0.00 0.00 99 1005.8
20260507061131 48 297 5.0 10.0 0.00 0.00 0.00 99 1005.8
20260507060630 48 282 6.0 10.0 0.00 0.00 0.00 99 1005.8
20260507060129 48 268 3.0 9.0 0.00 0.00 0.00 99 1005.8
20260507055628 48 273 2.0 11.0 0.00 0.00 0.00 98 1005.8
20260507055127 48 274 6.0 11.0 0.00 0.00 0.00 99 1005.8
20260507054555 48 283 5.0 10.0 0.00 0.00 0.00 99 1005.4
20260507054054 48 285 6.0 10.0 0.00 0.00 0.00 99 1005.5
20260507053553 48 261 5.0 8.0 0.00 0.00 0.00 99 1005.5
20260507053053 49 280 5.0 8.0 0.00 0.00 0.00 98 1005.5
20260507052521 49 283 4.0 10.0 0.00 0.00 0.00 98 1005.5
20260507052020 49 300 4.0 12.0 0.00 0.00 0.00 98 1005.8
20260507051519 49 287 7.0 12.0 0.00 0.00 0.00 99 1005.5
20260507051019 49 272 6.0 9.0 0.00 0.00 0.00 99 1005.5
20260507050344 49 273 4.0 7.0 0.00 0.00 0.00 99 1005.5
20260507045843 50 335 0.0 7.0 0.00 0.00 0.00 99 1005.5
20260507045342 50 251 5.0 7.0 0.00 0.00 0.00 99 1005.5
20260507044841 50 326 0.0 4.0 0.00 0.00 0.00 99 1005.8
20260507044340 50 326 0.0 4.0 0.00 0.00 0.00 99 1005.5
20260507043839 50 320 0.0 5.0 0.00 0.00 0.00 99 1005.8
20260507043336 50 308 4.0 5.0 0.00 0.00 0.00 99 1005.5
20260507042835 50 170 2.0 5.0 0.00 0.00 0.00 99 1005.5
20260507042232 50 337 3.0 6.0 0.00 0.00 0.00 99 1005.8
20260507041731 50 307 2.0 6.0 0.00 0.00 0.00 99 1005.5
20260507041230 51 300 1.0 7.0 0.00 0.00 0.00 99 1005.5
20260507040729 51 294 3.0 7.0 0.00 0.00 0.00 99 1005.5
20260507040229 51 272 3.0 7.0 0.00 0.00 0.00 99 1005.1
20260507035728 52 299 3.0 5.0 0.00 0.00 0.00 99 1005.2
20260507035156 52 315 2.0 7.0 0.00 0.00 0.00 99 1005.2
20260507034624 53 327 2.0 7.0 0.00 0.00 0.00 99 1005.2
20260507034052 53 296 0.0 7.0 0.00 0.00 0.00 99 1005.2
20260507033520 53 199 2.0 8.0 0.00 0.00 0.00 99 1005.2
20260507033019 53 307 4.0 9.0 0.00 0.00 0.00 99 1005.2
20260507032519 54 345 2.0 9.0 0.00 0.00 0.00 99 1005.2
20260507031947 54 323 6.0 13.0 0.00 0.00 0.00 99 1005.2
20260507031446 55 316 7.0 12.0 0.00 0.00 0.00 99 1005.2
20260507030914 55 299 4.0 8.0 0.00 0.00 0.00 100 1005.1
20260507030413 56 296 4.0 8.0 0.00 0.00 0.00 100 1005.1
20260507025912 56 299 4.0 10.0 0.00 0.00 0.00 100 1005.1
20260507025412 56 283 4.0 10.0 0.00 0.00 0.00 100 1004.8
20260507024910 56 303 4.0 8.0 0.00 0.00 0.00 100 1004.8
20260507024410 56 290 0.0 12.0 0.00 0.00 0.00 100 1004.5
20260507023836 57 302 7.0 12.0 0.00 0.00 0.00 100 1004.8
20260507023304 57 318 4.0 16.0 0.00 0.00 0.00 100 1004.8
20260507022803 57 319 4.0 16.0 0.00 0.00 0.00 100 1004.8
20260507022302 58 308 7.0 12.0 0.00 0.00 0.00 100 1004.5
20260507021801 58 316 5.0 11.0 0.00 0.00 0.00 100 1004.5
20260507021300 59 287 3.0 5.0 0.00 0.00 0.00 100 1004.5
20260507020759 59 278 3.0 5.0 0.00 0.00 0.00 100 1004.1
20260507020258 59 237 2.0 7.0 0.00 0.00 0.00 100 1004.5
20260507015757 59 218 3.0 8.0 0.00 0.00 0.00 100 1004.5
20260507015255 59 243 4.0 8.0 0.00 0.00 0.00 100 1004.5
20260507014754 59 238 3.0 9.0 0.00 0.00 0.00 100 1004.5
20260507014253 59 240 3.0 9.0 0.00 0.00 0.00 100 1004.5
20260507013752 59 221 3.0 8.0 0.00 0.00 0.00 100 1004.5
20260507013252 59 209 3.0 8.0 0.00 0.00 0.00 100 1004.5
20260507012751 59 190 1.0 9.0 0.00 0.00 0.00 100 1004.5
20260507012250 59 238 3.0 9.0 0.00 0.00 0.00 100 1004.5
20260507011749 59 242 4.0 8.0 0.00 0.00 0.00 100 1004.5
20260507011248 59 222 3.0 7.0 0.00 0.00 0.00 100 1004.5
20260507010747 59 187 4.0 10.0 0.00 0.00 0.00 100 1004.5
20260507010247 59 234 3.0 10.0 0.00 0.00 0.00 100 1004.5
20260507005746 59 238 4.0 9.0 0.00 0.00 0.00 100 1004.5
20260507005245 59 233 3.0 9.0 0.00 0.00 0.00 100 1004.5
20260507004744 59 274 4.0 10.0 0.00 0.00 0.00 100 1004.5
20260507004243 59 236 4.0 10.0 0.00 0.00 0.00 100 1004.4
20260507003742 59 240 4.0 10.0 0.00 0.00 0.00 100 1004.4
20260507003241 59 233 4.0 10.0 0.00 0.00 0.00 100 1004.4
20260507002741 59 243 5.0 14.0 0.00 0.00 0.00 100 1004.4
20260507002240 59 214 5.0 14.0 0.00 0.00 0.00 100 1004.4
20260507001739 59 245 6.0 12.0 0.00 0.00 0.00 100 1004.4
20260507001238 59 225 4.0 10.0 0.00 0.00 0.00 100 1004.4
20260507000737 59 216 3.0 10.0 0.00 0.00 0.00 100 1004.1
20260507000236 59 207 5.0 10.0 0.00 0.00 0.00 100 1004.1
20260506235735 59 212 3.0 10.0 0.00 0.00 0.00 100 1004.1
20260506235235 59 241 4.0 9.0 0.00 0.00 0.00 100 1004.1
20260506234734 59 233 4.0 11.0 0.00 0.00 0.00 100 1004.1
20260506234234 59 228 5.0 13.0 0.00 0.00 0.00 100 1004.1
20260506233701 59 210 4.0 13.0 0.00 0.00 0.00 100 1004.1
20260506233201 59 206 7.0 13.0 0.00 0.00 0.00 100 1004.4
20260506232659 59 217 5.0 17.0 0.00 0.00 0.00 100 1004.4
20260506232159 59 221 6.0 17.0 0.00 0.00 0.00 100 1004.4
20260506231658 59 224 4.0 8.0 0.00 0.00 0.00 100 1004.4
20260506231125 59 230 0.0 10.0 0.00 0.00 0.00 100 1004.4
20260506230625 59 227 4.0 10.0 0.00 0.00 0.00 100 1004.4
20260506230124 59 220 5.0 10.0 0.00 0.00 0.00 100 1004.1
20260506225623 59 237 3.0 10.0 0.00 0.00 0.00 100 1004.4
20260506225122 59 231 2.0 10.0 0.00 0.00 0.00 100 1004.4
20260506224550 59 229 4.0 13.0 0.00 0.00 0.00 100 1004.4
20260506224049 59 218 6.0 13.0 0.00 0.00 0.00 100 1004.4
20260506223548 59 205 7.0 11.0 0.00 0.00 0.00 100 1004.4
20260506223016 59 223 4.0 11.0 0.00 0.00 0.00 100 1004.4
20260506222515 59 197 3.0 11.0 0.00 0.00 0.00 100 1004.4
20260506222014 59 212 4.0 11.0 0.00 0.00 0.00 100 1004.4
20260506221514 60 229 6.0 13.0 0.00 0.00 0.00 100 1004.7
20260506220910 60 205 2.0 13.0 0.00 0.00 0.00 100 1004.7
20260506220409 60 215 4.0 10.0 0.00 0.00 0.00 100 1004.7
20260506215908 60 205 4.0 13.0 0.00 0.00 0.00 100 1004.7
20260506215408 60 215 6.0 13.0 0.00 0.00 0.00 100 1004.7
20260506214805 60 254 0.0 12.0 0.00 0.00 0.00 100 1004.7
20260506214304 60 205 4.0 14.0 0.00 0.00 0.00 100 1004.7
20260506213803 60 221 4.0 14.0 0.00 0.00 0.00 100 1004.7
20260506213302 60 189 2.0 10.0 0.00 0.00 0.00 100 1004.7
20260506212801 61 231 1.0 9.0 0.00 0.00 0.00 100 1004.7
20260506212300 61 196 4.0 10.0 0.00 0.00 0.00 100 1004.7
20260506211800 61 206 5.0 10.0 0.00 0.00 0.00 100 1005.1
20260506211156 61 215 4.0 10.0 0.00 0.00 0.00 100 1005.1